Location: Columbus
(29.5618°N, 96.6770°W)
Time: 05:50:37
(UTC-05:00)

Daily predictions for brighter satellites

Satellite Brightness Start Highest point End
(mag) Time Altitude Azimuth Time Altitude Azimuth Time Altitude Azimuth
Cosmos 2227 Rocket 4.3 00:19:01 10° N 00:21:18 20° NNE 00:21:18 20° NNE
Cosmos 2297 Rocket 4.3 01:13:02 10° NNW 01:15:01 22° N 01:15:01 22° N
CZ-4C R/B 4.3 01:31:06 10° N 01:37:22 29° NE 01:38:04 28° ENE
CZ-3C R/B 4.4 02:00:15 59° SE 02:00:15 59° SE 03:10:53 10° ESE
Cosmos 2263 Rocket 4.5 02:21:11 10° NNE 02:24:46 17° ENE 02:25:00 17° ENE
Cosmos 2360 Rocket 4.4 02:29:01 17° ENE 02:29:01 17° ENE 02:30:47 10° NE
Cosmos 1980 Rocket 4.3 02:30:02 21° NNW 02:30:02 21° NNW 02:32:14 10° N
SL-16 R/B 3.8 03:12:15 29° NNW 03:12:15 29° NNW 03:15:19 10° N
USA 234 4.1 03:05:09 10° NNE 03:10:58 40° NW 03:10:58 40° NW
Cosmos 2322 Rocket 3.8 03:20:24 27° NNW 03:20:24 27° NNW 03:23:32 10° N
CZ-4C R/B 3.8 03:18:53 10° NW 03:23:10 36° NW 03:23:10 36° NW
ADEOS Rocket 3.6 03:24:21 10° N 03:28:47 48° NNW 03:28:47 48° NNW
ATLAS 2AS CENTAUR R/B 2.9 03:31:06 75° ESE 03:31:08 75° ESE 03:39:10 10° NNE
ARIANE 5 R/B 3.6 03:28:00 10° NNE 03:31:41 42° NE 03:31:41 42° NE
GOES 2 Rocket 4.5 03:35:37 74° SSE 03:35:37 74° SSE 03:44:53 10° E
Resurs 1-4 Rocket 2.9 03:32:41 10° NNE 03:36:32 49° NNE 03:36:32 49° NNE
Cosmos 2237 4.4 03:53:17 66° N 03:53:17 66° N 03:58:09 10° NNE
BREEZE-M DEB (TANK) 3.4 03:57:13 60° ENE 03:57:13 60° ENE 04:05:14 10° NE
MOS 1 Rocket 4.2 03:54:36 10° NNE 03:57:36 41° NNE 03:57:36 41° NNE
CZ-2D R/B 2.5 03:56:05 10° N 04:00:39 57° NNW 04:00:39 57° NNW
Cosmos 1486 Rocket 4.2 03:59:31 10° N 04:04:48 67° ENE 04:04:52 67° E
Meteor 2-19 Rocket 4.5 04:07:51 64° SSE 04:08:44 76° E 04:14:53 10° N
Cosmos 2263 Rocket 3.3 04:03:26 10° NNW 04:06:36 32° NW 04:06:36 32° NW
Cosmos 2360 Rocket 3.3 04:10:47 32° NW 04:10:47 32° NW 04:15:05 10° N
UNKNOWN OBJECT B 4.2 04:07:05 10° NNE 04:09:32 37° NNE 04:09:32 37° NNE
ISS -0.7 04:09:34 10° N 04:11:38 16° NE 04:13:43 10° ENE
SL-16 R/B 2.4 04:11:56 69° W 04:11:56 69° W 04:18:10 10° NNW
Cosmos 44 Rocket 4.2 04:08:52 10° NNW 04:11:52 40° NNW 04:11:52 40° NNW
Cosmos 2219 Rocket 2.5 04:12:53 54° SE 04:13:37 58° ESE 04:19:11 10° NNE
Iridium 4 Rocket 3.9 04:15:39 60° WNW 04:15:39 60° WNW 04:20:57 10° N
COSMOS 2428 2.6 04:16:07 74° WNW 04:16:10 74° WNW 04:21:55 10° NNE
Cosmos 2237 Rocket 3.6 04:16:08 24° SE 04:18:13 31° ESE 04:23:07 10° NE
Cosmos 1544 4.4 04:24:19 37° E 04:24:19 37° E 04:27:33 10° NNE
Cosmos 2228 4.3 04:27:01 31° NNW 04:27:01 31° NNW 04:29:34 10° N
Cosmos 1844 Rocket 3.9 04:23:51 10° N 04:29:11 41° ENE 04:34:29 10° SE
BREEZE-M DEB (TANK) 3.2 04:30:00 72° WNW 04:30:10 73° NW 04:39:27 10° NE
Cosmos 2333 Rocket 2.3 04:33:28 48° S 04:35:01 73° ESE 04:40:42 10° NNE
Cosmos 1295 Rocket 4.4 04:39:37 39° S 04:42:10 86° W 04:48:32 10° N
ADEOS 4.5 04:37:46 10° N 04:42:15 31° WNW 04:42:15 31° WNW
Atlas Centaur 2 2.9 04:45:39 25° SE 04:45:39 25° SE 04:49:14 10° E
Meteor 2-5 Rocket 3.8 04:43:40 10° NNW 04:49:14 58° W 04:50:51 43° SSW
Cosmos 1766 3.6 04:49:51 52° NW 04:49:51 52° NW 04:53:15 10° N
ERBS 2.5 04:50:31 71° ENE 04:50:31 71° ENE 04:53:42 10° NE
Cosmos 972 4.3 04:50:14 52° SW 04:51:18 70° WNW 04:56:10 10° N
Meteor 1-24 Rocket 3.6 04:47:58 10° N 04:53:27 89° E 04:58:01 16° S
Cosmos 2278 Rocket 4.5 04:51:19 10° N 04:55:56 25° ENE 05:00:33 10° ESE
Cosmos 1503 Rocket 3.9 04:51:51 10° NNW 04:57:11 76° WSW 05:01:46 14° S
SL-8 Rocket 3.9 04:57:45 25° S 05:01:39 82° W 05:08:00 10° N
Cosmos 1812 Rocket 3.6 05:01:27 49° WSW 05:02:12 56° W 05:06:28 10° N
OAO 3 Rocket 4.2 04:59:40 17° WNW 05:03:02 44° N 05:07:43 10° ENE
Nadezhda 3 Rocket 4.2 04:57:04 10° NNW 05:03:03 48° W 05:05:51 30° SSW
SL-16 R/B 3.7 05:00:19 10° SSE 05:05:17 32° ESE 05:10:16 10° NE
Abrixas rocket 2.5 05:07:05 50° WNW 05:07:20 51° NW 05:10:35 10° NE
USA 161 1.4 05:10:38 71° SSW 05:10:51 77° W 05:13:51 10° NNW
ARIANE 5 R/B 4.4 05:09:09 10° NW 05:11:39 14° WNW 05:12:02 14° WNW
Lacrosse 5 2.2 05:12:17 25° SSW 05:15:08 60° ESE 05:20:09 10° NE
ADEOS II 2.0 05:10:08 10° N 05:15:24 80° WNW 05:19:03 20° SSW
Okean O Rocket 1.8 05:11:42 10° NNE 05:16:09 72° E 05:19:39 16° S
Meteor 2-21 Rocket 4.4 05:11:41 15° S 05:16:51 87° W 05:22:59 10° N
Resurs 1-4 Rocket 4.2 05:16:39 10° WNW 05:17:04 10° WNW 05:17:29 10° WNW
Cosmos 1674 4.1 05:14:15 10° NNE 05:17:52 39° E 05:21:29 10° SSE
Geosat 4.4 05:15:06 10° NNE 05:20:04 61° ESE 05:24:22 14° S
NOSS 8 (A) 4.3 05:19:00 40° SW 05:20:07 80° WNW 05:23:23 10° NNE
Cosmos 1844 3.7 05:14:46 10° NNW 05:20:25 90° WSW 05:26:06 10° SSE
NOSS 0 Rocket 4.1 05:17:50 26° SW 05:21:13 54° WNW 05:27:16 10° N
ATLAS 2AS CENTAUR R/B 4.5 05:18:33 14° W 05:22:55 22° NW 05:28:57 10° N
Intelsat 5-1 Rocket 3.3 05:20:48 27° WSW 05:23:19 51° S 05:34:50 10° ESE
Cosmos 1805 3.8 05:22:30 32° WSW 05:23:25 37° W 05:27:04 10° NNW
BREEZE-M DEB (TANK) 3.5 05:14:31 10° NW 05:27:27 62° SW 05:31:07 10° SSE
Cosmos 1340 Rocket 4.0 05:26:46 10° NW 05:29:54 23° W 05:30:02 23° W
NOSS 3-4 (A) 3.5 05:25:33 20° SSW 05:30:07 80° WNW 05:36:31 10° NNE
NOSS 3-4 (C) 3.5 05:25:36 20° SSW 05:30:11 81° WNW 05:36:36 10° NNE
Milstar 3 4.4 05:28:17 18° SW 05:30:19 19° SSW 05:37:26 10° SSE
Cosmos 1727 Rocket 4.1 05:29:25 10° N 05:35:38 77° E 05:41:47 10° S
Cosmos 1607 4.4 05:31:49 10° NW 05:37:48 42° WSW 05:43:46 10° S
Cosmos 1356 Rocket 3.5 05:36:34 10° NNW 05:40:26 49° W 05:44:17 10° S
Cosmos 2366 rocket 4.2 05:36:39 13° SSW 05:42:03 50° W 05:48:02 10° N
SEDSat Delta rocket 3.1 05:38:45 15° W 05:42:06 67° N 05:46:27 10° E
Tiangong 1 1.1 05:42:14 24° W 05:43:35 53° NNW 05:46:18 10° NE
SeaSat 1 2.5 05:41:13 10° SSE 05:46:08 85° ENE 05:51:05 10° NNW
Meteor 1-21 Rocket 4.3 05:41:35 10° N 05:47:23 87° W 05:53:16 10° S
ISS -3.2 05:45:11 10° WNW 05:48:10 34° SW 05:51:10 10° SSE
Cosmos 482 Debris 4.4 05:48:29 17° WNW 05:49:11 21° NW 05:51:04 10° NNE
Lacrosse 5 rocket 3.2 05:45:57 10° NNW 05:49:46 35° NE 05:53:47 10° ESE
ATLAS 2A CENTAUR R/B 1.1 05:48:23 17° WSW 05:50:16 44° S 05:52:09 10° ESE
Cosmos 1339 Rocket 4.4 05:48:26 10° N 05:54:28 73° W 06:00:32 10° S
Cosmos 1953 3.6 05:54:15 14° SW 05:56:45 24° W 06:00:03 10° NNW
Cosmos 2219 Rocket 4.0 05:54:39 10° W 05:57:53 15° WNW 06:01:09 10° NNW
ATLAS 3B R/B 2.7 05:52:42 10° NW 05:59:03 53° WSW 06:05:16 10° S
Meteor 1-31 Rocket 2.7 05:57:37 10° N 06:01:29 84° WNW 06:05:20 10° SSW
Cosmos 2237 Rocket 3.3 05:57:59 12° WSW 06:02:11 26° WNW 06:06:51 10° N
Okean-O 3.4 05:58:09 10° NNE 06:02:30 55° E 06:06:49 10° S
Cosmos 1408 Rocket 3.7 06:01:11 10° N 06:05:39 79° E 06:10:02 10° S
Iridium 2 3.6 06:04:12 10° S 06:07:59 73° W 06:11:47 10° N
CZ-4B R/B 4.5 06:05:38 10° NNW 06:08:27 19° WNW 06:11:20 10° WSW
EO 1 Del DPAF 3.6 06:05:21 10° SSE 06:09:10 69° ENE 06:13:00 10° N
Cosmos 1470 3.8 06:07:57 10° SW 06:11:22 28° W 06:14:45 10° NNW
Cosmos 1844 Rocket 3.9 06:08:41 10° NW 06:12:41 20° W 06:16:40 10° SW
KM-V1 3.3 06:09:35 10° W 06:13:16 82° SSW 06:15:30 10° ESE
CZ-2C R/B 3.6 06:08:46 10° S 06:13:19 77° WSW 06:17:49 10° NNW
Palapa 6 Rocket 4.3 06:10:17 10° SW 06:13:49 23° S 06:16:59 10° ESE
CZ-4B R/B 3.9 06:08:50 10° N 06:13:58 37° WNW 06:19:03 10° SW
RESURS DK-1 2.4 06:11:32 10° SSW 06:15:37 63° WNW 06:19:44 10° NNE
Cosmos 2333 Rocket 4.2 06:17:32 10° W 06:19:47 12° WNW 06:22:02 10° NW
Cosmos 968 Rocket 4.1 06:16:46 10° NW 06:21:18 32° W 06:25:49 10° SSW
USA 238 DEB 4.1 06:16:34 10° NW 06:23:17 46° WSW 06:30:02 10° S
USA 238 4.1 06:16:40 10° NW 06:23:24 47° WSW 06:30:10 10° S
